Regional Weather Roundup
Issued by NWS Sterling, VA

Home | Current Version | Previous Version | Graphics & Text | Print | Product List | Glossary On
Versions: 1 2 3 4 5 6 7 8 9 10 11 12 13 14 15 16 17 18 19 20 21 22 23 24 25 26 27 28 29 30 31 32 33 34 35 36 37 38 39 40 41 42 43 44 45 46 47 48 49 50
000
ASUS41 KLWX 282310
RWRLWX

REGIONAL WEATHER ROUNDUP
NATIONAL WEATHER SERVICE BALTIMORE MD/WASHINGTON DC
700 PM EDT SAT MAR 28 2015

Note: "FAIR" indicates few or no clouds below 12,000 feet
with no significant weather and/or obstructions to visibility.
 TC=TEMPERATURE CELSIUS

 * =Non NWS site. Station does not report precipitation (e.g. rain,
    snow, etc.), thunder, or fog.

DCZ001-MDZ009-015-VAZ040>042-051-053>054-290000-
WASHINGTON METRO

CITY           SKY/WX    TMP DP  RH WIND       PRES   REMARKS
WASHINGTON NAT MOCLDY    35  10  35 N22G30    30.13R WCI  23
DULLES         MOCLDY    31   9  39 NW18G25   30.13R WCI  19
ANDREWS AFB    PTCLDY    32   9  37 NW24      30.09R WCI  19
FT BELVOIR     MOCLDY    34   8  34 NW18G24   30.13R WCI  23
QUANTICO       MOCLDY    34   6  31 NW14G29   30.16R WCI  25
COLLEGE PARK*  PTCLDY    32   7  34 NW10G18   30.12R WCI  24
LEESBURG*      CLOUDY    32  14  47 NW17      30.14R WCI  21
MANASSAS*      MOCLDY    34   9  35 NW21G29   30.14R WCI  22
GAITHERSBURG*  MOCLDY    28   9  43 NW10G26   30.14R WCI  19

$$

MDZ006>007-011-014-290000-
BALTIMORE METRO

CITY           SKY/WX    TMP DP  RH WIND       PRES   REMARKS
BWI AIRPORT    PTCLDY    31   9  39 NW18G24   30.09R WCI  19
MD SCIENCE CTR   N/A     33   7  33 MISG      30.08R
MARTIN STATE   MOCLDY    34  16  47 W16G28    30.10R WCI  23
ANNAPOLIS      MOCLDY    33  13  43 NW16G24   30.10R WCI  23

$$

MDZ012-015-019>023-290000-
MARYLAND EASTERN SHORE

CITY           SKY/WX    TMP DP  RH WIND       PRES   REMARKS
OCEAN CITY     LGT SNOW  32  21  64 NW14G29   30.07R WCI  22
SALISBURY      FLURRIES  32  20  61 NW18G25   30.08R WCI  20
BAY BRIDGE AP*   N/A     32  16  51 W16       30.10R WCI  21
CAMBRIDGE*     PTCLDY    36  19  51 NW16G25   30.09R WCI  26
EASTON*        PTCLDY    34  18  51 NW16G29   30.11R WCI  23

$$

MDZ017>025-290000-
SOUTHERN MARYLAND

CITY           SKY/WX    TMP DP  RH WIND       PRES   REMARKS
PATUXENT RIVER MOCLDY    34   9  35 NW17      30.11R WCI  23
ST INIGOES     MOCLDY    34   7  32 NW10G20   30.11R WCI  26
LEONARDTOWN*   MOCLDY    32   9  37 W12G22    30.12R WCI  23

$$

MDZ003>005-290000-
NORTH CENTRAL MARYLAND

CITY           SKY/WX    TMP DP  RH WIND       PRES   REMARKS
FREDERICK*     MOCLDY    32   7  34 NW17G25   30.16R WCI  21
HAGERSTOWN APT PTCLDY    29   9  43 W21       30.11R WCI  16
WESTMINSTER*   CLEAR     30   7  37 NW15G28   30.07R WCI  19

$$

MDZ501>502-290000-
WESTERN MARYLAND

CITY           SKY/WX    TMP DP  RH WIND       PRES   REMARKS
OAKLAND*       PTCLDY    19   9  63 NW10G17   30.01R WCI   8
CUMBERLAND*    PTCLDY    32   5  32 NW14G29   30.18R WCI  22

$$

VAZ025>031-290000-
SHENANDOAH VALLEY

CITY           SKY/WX    TMP DP  RH WIND       PRES   REMARKS
WINCHESTER*    CLOUDY    32   1  27 NW22G30   30.13R WCI  19
FRONT ROYAL*   CLOUDY    30   9  40 W9G17     30.13R WCI  22
LURAY*         MOCLDY    32  10  40 NW7G20    30.14R
NEW MARKET*    FAIR      30   7  38 NW9       30.13R WCI  21
STAUNTON*      CLEAR     31   5  33 NW14G20   30.14R WCI  20
WAYNESBORO*    FAIR      28   6  38 NW15      30.11R WCI  17

$$

WVZ021-048>050-054>055-290000-
EASTERN WEST VIRGINIA PANHANDLE

CITY           SKY/WX    TMP DP  RH WIND       PRES   REMARKS
MARTINSBURG    PTCLDY    31   4  31 NW18      30.15R WCI  19
PETERSBURG*    PTCLDY    30   6  35 W13       30.17R WCI  20

$$

VAZ036>039-050-290000-
CENTRAL FOOTHILLS

CITY           SKY/WX    TMP DP  RH WIND       PRES   REMARKS
CHARLOTTESVILL CLEAR     33   6  32 VRB6      30.13R
CULPEPER*      MOCLDY    34   7  32 N5        30.15R
ORANGE*        CLEAR     34   9  35 W12       30.15R WCI  25
GORDONSVILLE*  FAIR      32   6  33 NW5       30.13R
WARRENTON*     FAIR      33  16  49 NW13G20   30.14R WCI  24

$$

VAZ055>057-290000-
NORTH AND CENTRAL PIEDMONT

CITY           SKY/WX    TMP DP  RH WIND       PRES   REMARKS
FREDERICKSBRG* PTCLDY    35   8  33 NW18G24   30.14R WCI  24
STAFFORD*      PTCLDY    32   4  30 W15       30.18R WCI  22

$$

NCZ024-NYZ072-PAZ021-071-VAZ022-071-290000-
OTHER REGIONAL OBSERVATIONS

CITY           SKY/WX    TMP DP  RH WIND       PRES   REMARKS
NEW YORK CITY  CLOUDY    36  15  42 NW13G20   29.97R WCI  27
PHILADELPHIA   MOCLDY    36  11  35 NW21G26   30.03R WCI  25
PITTSBURGH     PTCLDY    28   4  35 NW18      30.19R WCI  15
ROANOKE        CLEAR     34   5  29 NW21G28   30.15R WCI  22
RICHMOND       PTCLDY    37   9  31 NW18      30.12R WCI  27
RALEIGH        PTCLDY    44   8  23 NW7       30.10R

$$

ANZ530>537-290000-
MARINE OBSERVATIONS

STATION/POSITION TIME  TEMP    WIND        PRES
                       AIR SEA DIR/SP/G
                 (UTC) (F)     (DEG/KT/KT) (MB)
THOMAS PT LIGHT  2300                        N/A
BALT KEY BRIDGE  2200   33     300/ 19/ 21 1017.7R
COVE POINT       2200   33     330/ 15/ 19 1018.0R
LEWISETTA        2200   35 46              1018.8R
SOLOMONS ISLAND  2200      44                N/A
PINEY POINT      2200          330/ 26/ 28   N/A

$$



USA.gov is the U.S. government's official web portal to all federal, state and local government web resources and services.